Content
SEND FEEDBACK

Daily
Averages
Monthly
Summary
Czech Republic

CHEB, CZECH REPUBLIC


Home > Europe > Czech Republic
Elevation: 1545 feet     Latitude: 50 05N     Longitude: 012 24E

WEATHER
 
SELECT A DAY
Number of Records: 79,070;   Date Range: 6/5/97 - 7/23/14
 
SHARE

PRINT THIS DATA

[ ← Previous Day ]
WEATHER ALMANAC - JANUARY 31, 2013
[ Next Day → ]
[ °C ]   °F
Weather ElementAverageHighLow
Temperature39.1 °F41 °F (12:30 pm)37.4 °F (2:00 am)
Dewpoint31.2 °F35.6 °F (1:00 am)28.4 °F (1:30 pm)
Humidity73.8 %87 % (1:00 am)61 % (1:30 pm)
Barometer29.86 in29.95 in (8:00 am)29.74 in (9:00 pm)
Wind Speed14.3 mph19.6 mph (5:00 pm)
Wind Gust38 mph (5:00 pm)
Weather ElementAverage
Visibility6.2 mi
Wind DirectionWSW (242.2 °)

Weather ElementTotal
Precipitation---
Heating Degree Days25.8 (Base 65)
Averaged from 36 records on January 31, 2013
WEATHER CONDITIONS BREAKOUT
WIND DIRECTION BREAKOUT
WEATHER BY HOUR - JANUARY 31, 2013
[ °C ]   °F
Local TimeTemperatureDewpointHumidityBarometerVisibilityWind DirectionWind SpeedGust SpeedPrecipitationEventsConditions
1:00 AM39.2 °F35.6 °F87 %29.86 in6.2 miWSW (240°)11.5 mph23.0 mphScattered Clouds
2:00 AM37.4 °F32.0 °F81 %29.86 in6.2 miWSW (240°)13.8 mphScattered Clouds
3:00 AM39.2 °F32.0 °F75 %29.89 in6.2 miWSW (240°)16.1 mph27.6 mphMostly Cloudy
4:00 AM39.2 °F32.0 °F75 %29.89 in6.2 miWSW (250°)16.1 mphMostly Cloudy
5:00 AM39.2 °F32.0 °F75 %29.92 in6.2 miWSW (250°)17.3 mph29.9 mphMostly Cloudy
6:00 AM37.4 °F32.0 °F81 %29.92 in6.2 miWSW (250°)15.0 mphMostly Cloudy
7:00 AM37.4 °F32.0 °F81 %29.92 in6.2 miWSW (240°)13.8 mph25.3 mphRainLight Rain
7:30 AM37.4 °F32.0 °F81 %29.92 in6.2 miWSW (250°)13.8 mphMostly Cloudy
8:00 AM37.4 °F32.0 °F81 %29.95 in6.2 miWSW (240°)13.8 mph31.1 mphMostly Cloudy
8:30 AM37.4 °F30.2 °F75 %29.95 in6.2 miWSW (250°)15.0 mphScattered Clouds
9:00 AM39.2 °F30.2 °F70 %29.95 in6.2 miWSW (250°)17.3 mph29.9 mphMostly Cloudy
9:30 AM39.2 °F30.2 °F70 %29.95 in6.2 miWSW (250°)13.8 mphScattered Clouds
10:00 AM39.2 °F30.2 °F70 %29.95 in6.2 miWSW (240°)16.1 mphScattered Clouds
10:30 AM39.2 °F30.2 °F70 %29.95 in6.2 miWSW (250°)16.1 mph27.6 mphScattered Clouds
11:00 AM39.2 °F30.2 °F70 %29.95 in6.2 miWSW (240°)17.3 mph29.9 mphScattered Clouds
11:30 AM39.2 °F30.2 °F70 %29.95 in6.2 miWSW (240°)13.8 mphPartly Cloudy
12:00 PM39.2 °F30.2 °F70 %29.95 in6.2 miWSW (250°)11.5 mphScattered Clouds
12:30 PM41.0 °F30.2 °F65 %29.89 in6.2 miWSW (240°)10.4 mphScattered Clouds
1:00 PM41.0 °F30.2 °F65 %29.86 in6.2 miSW (220°)11.5 mph23.0 mphPartly Cloudy
1:30 PM41.0 °F28.4 °F61 %29.86 in6.2 miSW (230°)13.8 mphScattered Clouds
2:00 PM41.0 °F28.4 °F61 %29.86 in6.2 miSW (230°)16.1 mph28.8 mphScattered Clouds
2:30 PM41.0 °F28.4 °F61 %29.83 in6.2 miSW (230°)12.7 mph24.2 mphScattered Clouds
3:00 PM41.0 °F28.4 °F61 %29.80 in6.2 miSW (230°)13.8 mph32.2 mphPartly Cloudy
3:30 PM41.0 °F28.4 °F61 %29.80 in6.2 miWSW (240°)16.1 mph34.5 mphPartly Cloudy
4:00 PM41.0 °F28.4 °F61 %29.77 in6.2 miWSW (240°)16.1 mphScattered Clouds
4:30 PM41.0 °F28.4 °F61 %29.77 in6.2 miWSW (250°)15.0 mph29.9 mphRainLight Rain
5:00 PM41.0 °F30.2 °F65 %29.77 in6.2 miWSW (250°)19.6 mph38.0 mphRainLight Rain
5:30 PM39.2 °F32.0 °F75 %29.77 in6.2 miWSW (240°)11.5 mph23.0 mphRainLight Rain
6:00 PM39.2 °F32.0 °F75 %29.77 in6.2 miWSW (240°)15.0 mphMostly Cloudy
6:30 PM39.2 °F33.8 °F81 %29.77 in6.2 miSW (230°)12.7 mphMostly Cloudy
7:00 PM37.4 °F33.8 °F87 %29.77 in6.2 miWSW (240°)13.8 mphMostly Cloudy
7:30 PM37.4 °F33.8 °F87 %29.77 in6.2 miWSW (250°)12.7 mph24.2 mphMostly Cloudy
8:00 PM37.4 °F33.8 °F87 %29.77 in6.2 miWSW (250°)10.4 mphMostly Cloudy
9:00 PM37.4 °F33.8 °F87 %29.74 in6.2 miWSW (240°)15.0 mph26.5 mphRainLight Rain
10:00 PM37.4 °F33.8 °F87 %29.77 in6.2 miWSW (250°)15.0 mphMostly Cloudy
11:00 PM37.4 °F33.8 °F87 %29.80 in6.2 miWSW (250°)12.7 mphMostly Cloudy
Hourly data recorded from LKKV, located miles away from Cheb, Czech Republic







STORIES FROM OUR PARTNERS